Regional Weather Roundup
Issued by NWS

Home | Current Version | Previous Version | Graphics & Text | Print | Product List | Glossary On
Versions: 1 2 3 4 5 6 7 8 9 10 11 12 13 14 15 16 17 18 19 20 21 22 23 24 25 26 27 28 29 30 31 32 33 34 35 36 37 38 39 40 41 42 43 44 45 46 47 48 49 50
000
ASUS45 KBOU 241707
RWRCO

WEATHER ROUNDUP FOR COLORADO
NATIONAL WEATHER SERVICE DENVER/BOULDER CO
1000 AM MST TUE JAN 24 2017

NOTE: "FAIR" INDICATES FEW OR NO CLOUDS BELOW 12000 FEET WITH NO
SIGNIFICANT WEATHER AND/OR OBSTRUCTIONS TO VISIBILITY.

COZ001>005-013-030-031-241800-
...NORTHWEST COLORADO...

CITY           SKY/WX    TMP DP  RH WIND       PRES   REMARKS
CRAIG          LGT SNOW  23  18  81 W6        29.66R WCI  16
HAYDEN         FAIR      19  16  86 W8        29.63R WCI   9
MEEKER         LGT SNOW  25  18  74 NW8       29.64R WCI  16
MOUNT WERNER   NOT AVBL
STEAMBOAT SPGS CLOUDY    21  18  87 CALM      29.61R
WALDEN           N/A     18  10  73 CALM      29.56S
$$

COZ006>008-011-241800-
...WEST CENTRAL VALLEYS...

CITY           SKY/WX    TMP DP  RH WIND       PRES   REMARKS
GRAND JUNCTION LGT SNOW  30  30 100 NW6       29.67R VSB 1   WCI  24
MONTROSE       FAIR      28  26  92 E5        29.66R WCI  23
EAGLE          CLOUDY    27  19  74 CALM      29.64R
RIFLE          CLOUDY    29  26  89 CALM      29.64R
DELTA          PTSUNNY   32  28  86 CALM      29.66R
NUCLA          PTSUNNY   30  25  80 CALM      29.69R
$$

COZ017>023-064>068-241800-
...SOUTHWEST COLORADO...

CITY           SKY/WX    TMP DP  RH WIND       PRES   REMARKS
DURANGO        CLOUDY    26  21  81 W13       29.65R WCI  15
CORTEZ         CLOUDY    29  27  92 S22       29.68R WCI  15
PAGOSA SPRINGS LGT SNOW  24  22  95 SW9       29.63R WCI  14
TELLURIDE      LGT SNOW  18  16  93 W10       29.60R WCI   6
WOLF CREEK PAS CLOUDY     7   5  92 S18       29.55R WCI -12
$$

COZ009-010-012-014-032>034-037-058>063-241800-
...CENTRAL COLORADO...

CITY           SKY/WX    TMP DP  RH WIND       PRES   REMARKS
ASPEN          FLURRIES  19  16  88 S5        29.57R WCI  12
BUENA VISTA    FAIR      17   8  66 W6        29.55R WCI   9
COPPER MTN     NOT AVBL
BERTHOUD PASS  CLOUDY     3  -6  66 MISG      29.45S
COTTONWOOD PAS CLOUDY    23   7  50 W9        29.51R WCI  13
GUNNISON       LGT SNOW  17  13  84 CALM      29.60R FOG
KREMMLING      CLOUDY    18  10  73 CALM      29.61S
LEADVILLE      LGT SNOW  15   5  64 NW3       29.50R
MONARCH PASS     N/A      9   5  85 NW3       29.58R
SALIDA         CLOUDY    23  11  60 W3        29.63R
SUNLIGHT       CLOUDY   N/A N/A N/A W6        29.57R
WILKERSON PASS CLOUDY    12   5  73 W6        29.50S WCI   3
$$

COZ069>075-241800-
...SAN LUIS VALLEY/SANGRE DE CRISTO MOUNTAINS...

CITY           SKY/WX    TMP DP  RH WIND       PRES   REMARKS
ALAMOSA        FAIR      25  22  88 S5        29.54F WCI  19
LA VETA PASS   HVY SNOW  21  18  86 NE20G26   29.50R VSB<1/4 WCI   6
SAGUACHE       CLOUDY    23  19  86 NW10      29.56R HAZE    WCI  12
$$

COZ035-036-038>040-241800-
...NORTHERN COLORADO FRONT RANGE...

CITY           SKY/WX    TMP DP  RH WIND       PRES   REMARKS
DENVER INTL AP FOG       28  26  92 NE15      29.57R VSB 1/16WCI  16
DMNS CITY PARK   N/A     29  29 100 NE17      29.58R WCI  16
AURORA         FRZ RAIN  29  29 100 NE10      29.57R VSB 1/4 WCI  19
FRONT RANGE AP SNOW      30  28  93 N15       29.57R VSB 1/4 WCI  19
ERIE MUNI ARPT CLOUDY    28  27  98 NE14G20   29.59R WCI  16
BOULDER MUN AP LGT SNOW  30  28  93 N6        29.59R WCI  24
CENTENNIAL     PTSUNNY   32  26  78 N7        29.55R WCI  26
BROOMFIELD     NOT AVBL
FORT COLLINS   CLOUDY    28  27  93 E9        29.61R WCI  20
LONGMONT       CLOUDY    29  27  91 NE8       29.62R WCI  21
$$

COZ041-046-047-076>085-087-088-241800-
...PIKES PEAK/PALMER DIVIDE AND SOUTHERN FOOTHILLS...

CITY           SKY/WX    TMP DP  RH WIND       PRES   REMARKS
COLO. SPRINGS  PTSUNNY   35  15  44 N18       29.50R WCI  24
A. F. ACADEMY  FAIR      31  17  57 N16       29.49S WCI  19
SCHRIEVER AFB  FAIR      32  22  65 N20G28    29.50R WCI  21
ELLICOTT       FAIR     N/A N/A N/A N20G25    29.49R
FALCON         FAIR      30  20  67 N16G25    29.51R WCI  18
FORT CARSON    PTSUNNY   33  21  59 N14       29.49R WCI  24
LIMON          CLOUDY    27  27 100 N15       29.53R FOG     WCI  15
MONUMENT HILL  CLOUDY    25  23  93 NW9       29.54R WCI  15
TRINIDAD       FAIR      39  19  44 SW16      29.48F
$$

COZ042>045-048>051-090-091-241800-
...NORTHEAST COLORADO...

CITY           SKY/WX    TMP DP  RH WIND       PRES   REMARKS
GREELEY ARPT   CLOUDY    26  22  84 NE13      29.63R WCI  15
AKRON          CLOUDY    23  20  88 N21       29.58R WCI   8
BURLINGTON     CLOUDY    31  29  92 N16G26    29.52R WCI  20
WRAY           NOT AVBL
STERLING       LGT SNOW  27  23  86 N20       29.61R WCI  13
HOLYOKE        CLOUDY    30  28  93 N18G24    29.57S FOG     WCI  18
FORT MORGAN    CLOUDY    26  19  75 N14       29.62R WCI  15
$$

COZ086-089-092>099-241800-
...SOUTHEAST COLORADO...

CITY           SKY/WX    TMP DP  RH WIND       PRES   REMARKS
PUEBLO         FAIR      40  25  55 N15       29.51R
LA JUNTA       FAIR      39  29  67 NE10      29.52R
LAMAR          FAIR      37  29  72 N15       29.50F
SPRINGFIELD      N/A     52  25  35 W10       29.46F
$$



USA.gov is the U.S. government's official web portal to all federal, state and local government web resources and services.